Find Starlink 32852

NORAD ID: 62824 Int'l Des: 2025-018 Owner: SPXS Country: US Constellation: starlink operational
LEOCIRCULAR

实时位置

正在加载3D地球...

关于 Starlink 32852

正在加载描述...

即将过境

Passes for default location (London). Set your location on the main map for personalized predictions.

高度历史

Loading altitude history...

两行轨道根数

1 62824U 25018U 26125.03338569 .00008811 00000-0 30950-3 0 9999
2 62824 53.1618 47.9724 0001657 89.8797 270.2393 15.30175040 71806
Epoch: May 5, 2026 • Age: 10 hours

当前状态

高度 478.9 km
速度 7.63 km/s
星下点 44.62°N, 73.02°E
发射日期 Jan 24, 2025
运行时间 1.2 years
类型 internet

技术详情

分类 Payload
质量 730.00 kg
干质量 700.00 kg
总质量 730.00 kg
长度 0.30 m
直径 4.10 m
跨度 29.00 m
形状 Box + pan
制造商 SPXS
平台类型 Starlink V2M
阶段状态 In Orbit
所有者/国家 SPXS/US

Most Searched